Stations météo

Publicité
Clermont-Ferrand, France (7460): Température de l'air & dewpoint: 14.09.2019 05:00:00 - 20.09.2019 05:00:00 (CEST)Clermont-Ferrand, France (7460): Température de l'air 5cm: 14.09.2019 05:00:00 - 20.09.2019 05:00:00 (CEST)Clermont-Ferrand, France (7460): Température de l'air -20cm & Température de l'air -100cm: 14.09.2019 05:00:00 - 20.09.2019 05:00:00 (CEST)Clermont-Ferrand, France (7460): Vitesse du vent & gusts: 14.09.2019 05:00:00 - 20.09.2019 05:00:00 (CEST)Clermont-Ferrand, France (7460): Direction du vent: 14.09.2019 05:00:00 - 20.09.2019 05:00:00 (CEST)Clermont-Ferrand, France (7460): reduced air pressure: 14.09.2019 05:00:00 - 20.09.2019 05:00:00 (CEST)Clermont-Ferrand, France (7460): visibility: 14.09.2019 05:00:00 - 20.09.2019 05:00:00 (CEST)Clermont-Ferrand, France (7460): Ensoleillement: 14.09.2019 05:00:00 - 20.09.2019 05:00:00 (CEST)Clermont-Ferrand, France (7460): Quantités de précipitations: 14.09.2019 05:00:00 - 20.09.2019 05:00:00 (CEST)
Date & Time tt [°C] td [°C] tt 5cm [°C] tt -20cm [°C] tt -100cm [°C] ff [km/h] ff [knt] fx [km/h] fx [knt] dd ppp [hPa] vv [km] sd [min] rr [mm]
20.09.2019 05:00:00 - - - - - - - - - - - - - -
20.09.2019 04:00:00 7,7 0,6 4,5 19,4 18,5 4 2 8 4 WSW 1023,2 52 0 0,0
20.09.2019 03:00:00 9,0 0,9 5,1 19,4 18,5 4 2 9 5 W 1023,2 51 0 0,0
20.09.2019 02:00:00 10,0 1,1 5,0 19,5 18,5 4 2 7 4 WSW 1023,2 52 0 0,0
20.09.2019 01:00:00 10,4 0,4 5,5 19,5 18,5 2 1 6 3 WSW 1023,1 10 0 0,0
20.09.2019 00:00:00 11,0 0,4 5,6 19,5 18,5 6 3 8 4 W 1023,3 54 0 0,0
19.09.2019 23:00:00 12,6 0,3 8,0 19,5 18,5 2 1 8 5 W 1023,3 6 0 0,0
19.09.2019 22:00:00 15,7 -0,5 12,0 19,4 18,5 2 1 10 5 SW 1022,5 55 0 0,0
19.09.2019 21:00:00 16,6 1,5 13,5 19,4 18,5 8 4 18 10 N 1022,0 24 0 0,0
19.09.2019 20:00:00 17,8 0,4 15,9 19,4 18,5 9 5 26 14 NNE 1021,0 19 29 0,0
19.09.2019 19:00:00 20,7 -2,4 22,9 19,4 18,5 15 8 38 20 NNE 1020,1 43 60 0,0
19.09.2019 18:00:00 21,9 -2,1 25,6 19,4 18,5 17 9 39 21 NNE 1019,8 26 60 0,0
19.09.2019 17:00:00 22,8 -1,4 27,3 19,4 18,5 22 12 39 21 NNE 1019,7 24 60 0,0
19.09.2019 16:00:00 22,7 -2,9 27,0 19,5 18,5 19 10 37 20 NNE 1020,0 25 60 0,0
19.09.2019 15:00:00 21,7 1,9 26,3 19,5 18,5 19 10 37 20 NNW 1020,6 26 60 0,0
19.09.2019 14:00:00 20,0 1,9 25,1 19,6 18,5 16 9 32 17 N 1021,4 19 60 0,0
19.09.2019 13:00:00 18,1 2,8 23,0 19,7 18,5 12 7 30 16 N 1022,2 28 60 0,0
19.09.2019 12:00:00 16,5 2,8 21,4 19,7 18,5 14 7 29 16 N 1022,6 26 60 0,0
19.09.2019 11:00:00 15,3 2,4 18,7 19,8 18,5 13 7 24 13 N 1022,7 15 60 0,0
19.09.2019 10:00:00 13,8 2,4 17,3 19,8 18,5 10 5 18 10 N 1023,0 27 60 0,0
19.09.2019 09:00:00 12,4 1,7 9,0 19,9 18,5 3 2 6 3 ESE 1022,9 27 60 0,0
19.09.2019 08:00:00 9,6 1,0 3,8 19,9 18,5 4 2 6 4 ENE 1022,8 56 3 0,0
19.09.2019 07:00:00 10,5 1,0 4,6 20,0 18,5 5 3 7 4 N 1022,2 59 0 0,0
19.09.2019 06:00:00 11,6 0,9 6,9 20,0 18,5 4 2 8 5 N 1021,8 60 0 0,0
19.09.2019 05:00:00 12,6 0,3 10,0 20,0 18,5 2 1 13 7 N 1021,8 59 0 0,0
19.09.2019 04:00:00 13,3 0,0 10,5 20,1 18,5 5 3 12 7 WNW 1021,7 60 0 0,0
19.09.2019 03:00:00 13,7 -0,4 11,4 20,1 18,5 8 4 19 11 WNW 1021,5 60 0 0,0
19.09.2019 02:00:00 14,4 0,6 12,7 20,1 18,4 6 3 23 12 NNW 1021,4 59 0 0,0
19.09.2019 01:00:00 15,1 1,6 13,6 20,1 18,5 9 5 22 12 N 1021,2 60 0 0,0
19.09.2019 00:00:00 15,9 1,9 14,7 20,1 18,4 13 7 24 13 NNW 1021,0 57 0 0,0
18.09.2019 23:00:00 16,9 2,1 15,8 20,0 18,5 12 7 23 12 N 1020,6 34 0 0,0
18.09.2019 22:00:00 18,1 2,0 17,0 20,0 18,5 13 7 25 14 N 1020,1 57 0 0,0
18.09.2019 21:00:00 19,9 3,1 18,4 20,0 18,4 12 6 19 10 N 1018,9 57 0 0,0
18.09.2019 20:00:00 20,4 4,8 18,6 20,0 18,4 8 4 24 13 NNE 1018,1 55 31 0,0
18.09.2019 19:00:00 23,3 5,2 25,2 20,0 18,4 14 8 31 17 NE 1017,2 45 60 0,0
18.09.2019 18:00:00 24,1 4,9 27,9 19,9 18,4 17 9 31 17 NNE 1017,0 37 60 0,0
18.09.2019 17:00:00 23,7 3,6 28,5 20,0 18,5 16 9 37 20 NNE 1017,4 38 60 0,0
18.09.2019 16:00:00 22,8 7,7 28,1 20,0 18,4 17 9 37 20 N 1018,0 27 60 0,0
18.09.2019 15:00:00 22,1 7,9 28,1 20,0 18,4 16 9 35 19 N 1018,4 28 60 0,0
18.09.2019 14:00:00 20,6 7,9 24,7 20,1 18,4 13 7 28 15 N 1018,7 30 51 0,0
18.09.2019 13:00:00 19,0 8,3 23,3 20,1 18,4 12 6 30 16 N 1019,2 29 55 0,0
18.09.2019 12:00:00 19,1 8,7 21,0 20,2 18,4 10 5 22 12 NNW 1019,0 35 49 0,0
18.09.2019 11:00:00 17,1 8,5 21,1 20,2 18,4 9 5 21 11 N 1019,4 38 47 0,0
18.09.2019 10:00:00 16,4 8,4 15,3 20,2 18,4 10 5 19 11 N 1019,3 43 25 0,0
18.09.2019 09:00:00 14,9 8,6 13,8 20,3 18,4 8 4 15 8 N 1019,1 40 1 0,0
18.09.2019 08:00:00 14,2 8,8 11,9 20,3 18,4 4 2 8 5 WNW 1019,0 41 5 0,0
18.09.2019 07:00:00 14,2 8,6 10,0 20,4 18,4 5 3 15 8 NW 1018,8 57 0 0,0
18.09.2019 06:00:00 14,6 9,0 12,2 20,4 18,4 8 4 13 7 NNW 1018,5 59 0 0,0
18.09.2019 05:00:00 14,9 9,3 12,7 20,4 18,4 8 5 19 10 NNW 1018,4 60 0 0,0
18.09.2019 04:00:00 15,7 9,6 13,8 20,4 18,4 10 5 16 9 NNW 1018,3 59 0 0,0
18.09.2019 03:00:00 16,4 10,0 14,6 20,4 18,4 8 4 21 11 NW 1018,3 50 0 0,0
18.09.2019 02:00:00 17,4 10,5 15,7 20,3 18,4 9 5 19 10 NNW 1018,2 60 0 0,0
18.09.2019 01:00:00 18,0 10,8 16,7 20,4 18,4 9 5 19 11 NW 1018,1 60 0 0,0
18.09.2019 00:00:00 18,8 11,4 17,5 20,3 18,4 9 5 26 14 NW 1017,9 60 0 0,0
17.09.2019 23:00:00 19,5 11,5 18,4 20,3 18,4 9 5 28 15 NNW 1018,1 60 0 0,0
17.09.2019 22:00:00 21,4 11,1 20,6 20,2 18,4 14 8 27 15 N 1017,4 59 0 0,0
17.09.2019 21:00:00 22,9 5,8 20,2 20,2 18,4 8 5 23 12 N 1016,4 60 0 0,0
17.09.2019 20:00:00 24,4 4,2 22,0 20,1 18,4 10 5 21 11 NNW 1015,4 60 33 0,0
17.09.2019 19:00:00 26,7 3,8 28,6 20,1 18,4 13 7 32 18 N 1015,1 52 60 0,0
17.09.2019 18:00:00 28,0 4,3 32,0 20,1 18,4 16 9 33 18 N 1015,1 51 60 0,0
17.09.2019 17:00:00 28,7 4,9 33,4 20,1 18,4 13 7 33 18 NNE 1015,1 47 60 0,0
17.09.2019 16:00:00 29,1 7,1 34,5 20,1 18,4 12 7 29 15 NNE 1015,4 51 60 0,0
17.09.2019 15:00:00 28,3 6,4 33,8 20,1 18,4 11 6 26 14 N 1016,0 20 60 0,0
17.09.2019 14:00:00 27,3 6,7 32,5 20,1 18,4 11 6 24 13 N 1016,7 58 60 0,0
17.09.2019 13:00:00 25,5 7,1 31,0 20,2 18,4 8 4 16 9 NNE 1017,7 48 60 0,0
17.09.2019 12:00:00 23,7 6,9 28,9 20,2 18,4 8 4 16 9 N 1018,5 47 60 0,0
17.09.2019 11:00:00 22,1 5,9 25,4 20,2 18,4 4 2 11 6 ENE 1018,8 26 60 0,0
17.09.2019 10:00:00 20,3 6,6 22,9 20,3 18,4 6 3 10 5 NE 1019,2 27 60 0,0
17.09.2019 09:00:00 18,3 6,5 13,7 20,3 18,4 2 1 5 3 SSE 1019,2 7 60 0,0
17.09.2019 08:00:00 13,5 6,4 10,5 20,4 18,4 2 1 6 3 N 1019,7 48 11 0,0
17.09.2019 07:00:00 14,0 6,1 10,2 20,4 18,4 5 3 6 4 ESE 1019,3 52 0 0,0
17.09.2019 06:00:00 15,2 6,2 11,3 20,4 18,4 4 2 6 3 W 1019,0 27 0 0,0
17.09.2019 05:00:00 15,2 6,2 11,3 20,4 18,4 0 0 3 2 N 1019,1 16 0 0,0
17.09.2019 04:00:00 16,0 6,4 11,9 20,4 18,4 0 0 8 5 N 1019,0 19 0 0,0
17.09.2019 03:00:00 17,2 6,7 12,9 20,3 18,4 4 2 8 4 ESE 1018,8 57 0 0,0
17.09.2019 02:00:00 18,6 6,1 15,0 20,3 18,4 4 2 12 7 NE 1018,9 60 0 0,0
17.09.2019 01:00:00 22,8 4,8 19,5 20,2 18,4 9 5 15 8 WNW 1018,4 59 0 0,0
17.09.2019 00:00:00 23,7 6,0 20,2 20,2 18,4 8 5 12 7 WNW 1018,5 54 0 0,0
16.09.2019 23:00:00 23,9 8,7 18,8 20,1 18,4 6 3 11 6 NW 1018,2 51 0 0,0
16.09.2019 22:00:00 25,0 10,8 19,2 20,1 18,4 2 1 10 6 NE 1017,6 46 0 0,0
16.09.2019 21:00:00 26,0 11,0 21,1 20,0 18,4 6 3 10 5 NNW 1016,9 46 0 0,0
16.09.2019 20:00:00 27,7 11,3 25,6 19,9 18,4 8 4 14 8 N 1016,2 20 35 0,0
16.09.2019 19:00:00 30,0 10,5 32,4 19,9 18,4 9 5 24 13 NNE 1015,6 40 60 0,0
16.09.2019 18:00:00 31,4 10,1 35,5 19,9 18,4 10 6 24 13 NNE 1015,4 20 60 0,0
16.09.2019 17:00:00 31,8 9,3 37,1 19,9 18,4 6 3 22 12 NNE 1015,7 39 60 0,0
16.09.2019 16:00:00 32,2 9,1 37,3 19,8 18,4 10 6 22 12 N 1016,2 57 60 0,0
16.09.2019 15:00:00 31,7 9,3 37,1 19,9 18,4 8 4 19 10 NNE 1016,8 25 60 0,0
16.09.2019 14:00:00 30,5 9,4 36,0 19,9 18,4 7 4 23 12 N 1017,5 60 60 0,0
16.09.2019 13:00:00 29,5 9,6 34,2 19,9 18,3 8 4 19 10 NE 1018,5 18 60 0,0
16.09.2019 12:00:00 27,6 8,9 31,3 19,9 18,4 4 2 15 8 ENE 1019,1 37 60 0,0
16.09.2019 11:00:00 25,4 9,2 27,0 19,9 18,4 8 4 20 11 S 1019,6 24 60 0,0
16.09.2019 10:00:00 22,5 10,0 22,3 20,0 18,4 11 6 19 10 S 1020,1 25 60 0,0
16.09.2019 09:00:00 19,4 10,1 17,8 20,0 18,4 8 4 17 9 SSW 1020,4 28 60 0,0
16.09.2019 08:00:00 17,9 9,8 16,1 20,0 18,3 3 2 19 10 NNE 1020,3 46 11 0,0
16.09.2019 07:00:00 18,2 9,5 16,6 20,0 18,4 4 2 12 7 NNW 1020,0 51 0 0,0
16.09.2019 06:00:00 19,2 9,7 16,0 20,0 18,4 3 1 9 5 S 1019,8 53 0 0,0
16.09.2019 05:00:00 17,7 10,8 15,4 20,0 18,3 8 4 11 6 NNE 1020,5 55 0 0,0
16.09.2019 04:00:00 18,3 10,6 16,4 20,0 18,4 7 4 13 7 N 1020,4 54 0 0,0
16.09.2019 03:00:00 19,7 10,4 16,0 20,0 18,3 3 2 6 4 ENE 1020,3 57 0 0,0
16.09.2019 02:00:00 19,3 11,1 16,5 19,9 18,4 3 2 4 2 WSW 1020,5 52 0 0,0
16.09.2019 01:00:00 19,5 11,0 17,0 19,9 18,3 0 0 6 4 N 1020,6 53 0 0,0
16.09.2019 00:00:00 20,0 10,7 16,5 19,8 18,4 3 2 11 6 S 1020,7 54 0 0,0
15.09.2019 23:00:00 21,0 9,9 16,9 19,8 18,4 3 1 6 4 ENE 1020,4 56 0 0,0
15.09.2019 22:00:00 23,1 10,5 18,3 19,7 18,4 4 2 8 4 NNW 1019,9 50 0 0,0
15.09.2019 21:00:00 25,2 9,5 20,5 19,6 18,4 5 3 10 6 W 1019,4 52 0 0,0
15.09.2019 20:00:00 27,6 10,3 23,3 19,6 18,4 6 4 11 6 NNE 1018,6 60 7 0,0
15.09.2019 19:00:00 29,9 9,9 30,7 19,5 18,4 8 4 13 7 NNE 1018,2 60 46 0,0
15.09.2019 18:00:00 32,0 8,3 35,9 19,5 18,4 5 3 18 10 N 1018,2 38 60 0,0
15.09.2019 17:00:00 32,2 7,8 37,0 19,5 18,4 9 5 21 11 E 1018,6 53 60 0,0
15.09.2019 16:00:00 32,1 9,0 35,7 19,4 18,4 3 2 17 9 ENE 1019,3 19 51 0,0
15.09.2019 15:00:00 31,1 8,7 35,1 19,4 18,4 6 4 20 11 E 1020,3 33 50 0,0
15.09.2019 14:00:00 30,7 9,0 35,6 19,4 18,4 6 3 18 10 SSW 1021,0 18 60 0,0
15.09.2019 13:00:00 29,5 9,6 33,9 19,5 18,4 4 2 16 8 WNW 1021,8 13 60 0,0
15.09.2019 12:00:00 26,7 11,2 30,2 19,5 18,4 7 4 22 12 S 1022,9 20 60 0,0
15.09.2019 11:00:00 24,4 10,7 25,6 19,5 18,4 8 4 23 13 SSE 1023,4 17 60 0,0
15.09.2019 10:00:00 21,0 11,9 19,9 19,5 18,4 11 6 20 11 S 1024,2 42 58 0,0
15.09.2019 09:00:00 18,4 11,2 16,7 19,5 18,4 4 2 27 15 S 1024,3 24 55 0,0
15.09.2019 08:00:00 16,4 11,1 13,2 19,5 18,4 11 6 21 11 SSW 1024,8 49 6 0,0
15.09.2019 07:00:00 17,1 11,1 13,3 19,5 18,4 9 5 38 20 W 1024,4 55 0 0,0
15.09.2019 06:00:00 18,0 11,1 16,6 19,5 18,4 10 6 22 12 SSE 1024,2 59 0 0,0
15.09.2019 05:00:00 18,1 11,2 16,0 19,5 18,4 5 3 21 11 SSE 1024,0 60 0 0,0
15.09.2019 04:00:00 18,8 11,4 16,6 19,5 18,4 6 4 16 9 NNE 1024,1 60 0 0,0
15.09.2019 03:00:00 19,0 11,6 17,3 19,5 18,4 10 5 23 13 S 1024,3 60 0 0,0
15.09.2019 02:00:00 19,8 11,6 17,9 19,4 18,4 5 3 9 5 NW 1024,6 57 0 0,0
15.09.2019 01:00:00 19,8 11,6 16,6 19,4 18,4 3 2 8 4 SW 1024,4 58 0 0,0
15.09.2019 00:00:00 20,4 11,3 16,8 19,3 18,4 3 1 4 2 ESE 1024,7 60 0 0,0
14.09.2019 23:00:00 22,5 11,2 18,3 19,2 18,4 3 2 9 5 WNW 1024,4 58 0 0,0
14.09.2019 22:00:00 24,5 10,7 20,3 19,2 18,4 7 4 12 6 NW 1024,2 60 0 0,0
14.09.2019 21:00:00 24,7 11,6 20,9 19,1 18,4 2 1 9 5 SSE 1024,0 54 0 0,0
14.09.2019 20:00:00 25,9 12,7 22,6 19,0 18,4 5 3 8 4 NE 1023,2 60 0 0,0
14.09.2019 19:00:00 28,7 12,6 28,5 19,0 18,4 0 0 5 3 N 1022,8 60 0 0,0
14.09.2019 18:00:00 29,4 10,0 30,5 18,9 18,4 3 2 11 6 S 1022,7 57 0 0,0
14.09.2019 17:00:00 29,5 11,1 32,4 18,9 18,4 6 3 21 11 NNE 1022,8 56 11 0,0
14.09.2019 16:00:00 29,6 11,2 33,8 18,9 18,4 6 3 16 8 NNW 1023,3 57 53 0,0
14.09.2019 15:00:00 29,8 10,8 33,4 18,9 18,4 6 3 16 9 NNE 1024,3 17 58 0,0
14.09.2019 14:00:00 27,7 11,7 33,1 18,9 18,4 5 3 15 8 NNW 1025,1 19 60 0,0
14.09.2019 13:00:00 26,2 12,3 31,8 18,9 18,4 6 4 19 11 E 1025,9 20 60 0,0
14.09.2019 12:00:00 24,3 11,9 28,0 18,9 18,4 5 3 14 8 E 1026,8 48 60 0,0
14.09.2019 11:00:00 22,3 11,7 24,9 19,0 18,4 4 2 12 7 SE 1027,5 48 60 0,0
14.09.2019 10:00:00 20,3 11,8 21,8 19,0 18,4 4 2 10 5 E 1028,1 36 60 0,0
14.09.2019 09:00:00 17,0 11,3 15,1 19,0 18,4 2 1 6 3 NW 1028,3 45 60 0,0
14.09.2019 08:00:00 13,4 10,6 9,4 19,0 18,5 6 4 10 5 N 1028,7 17 10 0,0
14.09.2019 07:00:00 13,7 9,9 10,5 19,0 18,5 4 2 8 5 ENE 1028,1 58 0 0,0
14.09.2019 06:00:00 13,9 10,3 11,0 19,0 18,4 3 1 7 4 WSW 1028,2 60 0 0,0
14.09.2019 05:00:00 14,9 11,3 11,2 19,0 18,5 3 2 5 3 N 1028,1 56 0 0,0

tt = Température de l'air
td = dewpoint
tt 5cm = Température de l'air 5cm
tt -20cm = Température de l'air -20cm
tt -100cm = Température de l'air -100cm
ff = Vitesse du vent
fx = gusts
dd = Direction du vent
ppp = reduced air pressure
vv = visibility
sd = Ensoleillement
rr = Quantités de précipitations

stations d'obs. à proximité